Home   Weather   Greensboro   Past weeks

Flag for USA Past Weather in Greensboro, North Carolina, USA — Yesterday and Last 2 Weeks

Now
52 °F

Scattered clouds.


Feels Like: 47 °F
Forecast: 36 / 54 °F
Wind: 14 mph from West

Location: Piedmont Triad International Airport

Current Time: Dec 2, 2016 at 1:00:22 pm

Latest Report: Dec 2, 2016 at 11:54 am


Visibility: 10 mi

Pressure: 30.12 "Hg

Humidity: 41%

Dew Point: 29 °F

Location of GreensboroLocation

Past Weather in Greensboro — Graph

°F

Greensboro Temperature Yesterday

Maximum temperature yesterday: 62 °F (at 12:54 am)
Minimum temperature yesterday: 42 °F (at 10:54 pm)
Average temperature yesterday: 53 °F

High & Low Weather Summary for the Past Weeks

 TemperatureHumidityPressure
High78 °F (Nov 18, 1:54 pm)100% (Nov 25, 5:54 am)30.35 "Hg (Nov 25, 5:54 am)
Low29 °F (Nov 21, 4:54 am)16% (Nov 22, 1:54 pm)29.66 "Hg (Nov 30, 9:54 pm)
Average51 °F60%30.08 "Hg
* Reported Nov 17 10:54 am — Dec 2 10:54 am, Greensboro, Weather by CustomWeather, © 2016

Note: Actual official high and low records may vary slightly from our data, if they occured in-between our weather recording intervals... More about our weather records

Advertising

Greensboro Weather History for the Previous 24 Hours

Scroll right to see more
 ConditionsComfort  
Time TempWeatherWind HumidityBarometerVisibility
10:54 am
Fri, Dec 2
50 °FPassing clouds.12 mph44%30.16 "Hg10 mi
9:54 am49 °FPassing clouds.10 mph46%30.15 "Hg10 mi
8:54 am45 °FPassing clouds.8 mph56%30.15 "Hg10 mi
7:54 am37 °FPassing clouds.No wind79%30.12 "Hg10 mi
6:54 am36 °FPassing clouds.No wind79%30.11 "Hg10 mi
5:54 am39 °FClear.No wind70%30.09 "Hg10 mi
4:54 am41 °FClear.5 mph65%30.05 "Hg10 mi
3:54 am42 °FClear.6 mph62%30.03 "Hg10 mi
2:54 am41 °FClear.6 mph67%30.01 "Hg10 mi
1:54 am41 °FClear.3 mph67%30.02 "Hg10 mi
12:54 am42 °FClear.No wind68%30.01 "Hg10 mi
11:54 pm
Thu, Dec 1
43 °FClear.5 mph62%30.01 "Hg10 mi
10:54 pm42 °FClear.No wind65%29.99 "Hg10 mi
9:54 pm45 °FClear.6 mph60%29.97 "Hg10 mi
8:54 pm45 °FClear.5 mph60%29.96 "Hg10 mi
7:54 pm48 °FClear.6 mph54%29.94 "Hg10 mi
6:54 pm52 °FClear.7 mph47%29.92 "Hg10 mi
5:54 pm54 °FPassing clouds.7 mph45%29.90 "Hg10 mi
4:54 pm55 °FSunny.7 mph42%29.87 "Hg10 mi
3:54 pm60 °FSunny.10 mph33%29.85 "Hg10 mi
2:54 pm61 °FSunny.16 mph31%29.83 "Hg10 mi
1:54 pm60 °FSunny.13 mph35%29.83 "Hg10 mi
Weather by CustomWeather, © 2016

See weather overviewHow to use our weather pages